一网星座-0336星 (ONEWEB-0336 )

导读

ONEWEB-0336是英国发射的低轨道通信卫星,隶属于OneWeb星座系统,于北京时间2021年9月14日8时发射入轨。该卫星承担全球宽带互联网覆盖任务,为偏远区域、海事航空等场景提供高速互联服务,是OneWeb全球卫星组网的重要组成单元,助力推进全球网络基础设施覆盖。

Basic Information
目录编号:
49202
目录名称:
ONEWEB-0336
国际标识:
2021-083S
轨道中心:
EARTH
卫星名称:
一网星座-0336星
卫星全名:
一网星座-0336星 (ONEWEB-0336 )
卫星状态:
在轨 (已飞行1824 天)
发射日期:
2021-09-14 UTC
国别 :
英国 (GB)
星等 :
--
This satellite is enrolled in the Space Conjunction Data Service (SCDS) and the current flight risk assessment level is: No High Risk
Orbit Information
数据来源 国际轨道数据 AOE轨道数据
星历时间 2026-09-12T04:56:32+0800
9小时前
查看轨道信息
2026-09-11T00:00:00+0800
1天前
查看轨道信息
半长轴 7587.909km 7587.906km
偏心率 0.0001977 0.0002012
轨道倾角 87.893° 87.893°
近地点辐角 106.044° 104.282°
升交点赤经 302.980° 303.220°
平近点角 254.091° 316.892°
近地点 1208.271km 1208.242km
远地点 1211.273km 1211.296km
周期 109.633分钟 109.633分钟
每日圈数 13.134684 13.134692
Detailed Information
平衡模式:
三轴稳定
覆盖范围:
全球
运营商:
一网卫星公司
运营商所在国:
英国
制造商(研发单位):
一网卫星公司
制造商所在国:
英国
使用方式:
暂无
Satellite Introduction
OneWeb卫星网络由648颗重约125公斤的微型卫星组成,运行在1200公里的轨道上。 每颗卫星都能够提供至少每秒8千兆位的吞吐量,以使用其高吞吐量的Ku频段有效载荷为家庭和移动平台提供互联网接入。该卫星仍在工作。
2D Orbit Map
3D Orbit Map
Orbit Altitude Analysis Chart
Orbit Inclination Analysis Chart
Orbit Comprehensive Analysis Chart
View Comprehensive Chart
Miss Distance Evolution Trend with All Objects
Collision Probability Evolution Trend with All Objects